Location: ShareBrained
(45.5589°N, 122.6491°W)
Time: 01:37:16
(UTC-08:00)

NOAA 19 - Pass Details

Date: 25 September 2023
Orbit: 839 x 860 km, 99.1° (Epoch: 08 December)

Event Time Altitude Azimuth Distance (km) Brightness Sun altitude
Exits shadow 23:01:32 13° 260° (W) 2,289 7.7 -38.3°
Maximum altitude 23:02:34 13° 272° (W) 2,253 7.8 -38.4°
Drops below altitude 10° 23:05:06 10° 300° (WNW) 2,484 8.3 -38.7°
Sets 23:08:57 0° 327° (NNW) 3,432 9.3 -39.1°
